OE5RBO Weather Reports


Display with metric or nautical units.
time (UTC)temp
F
wind
direction
speed
MPH
gust
MPH
rain 1hr
in
rain 24hr
in
rain mn
in
humidity
%
barometer
mb
20260509142221 72 37 6.0 11.0 0.00 0.00 0.00 55 1015.5
20260509141220 71 288 4.0 10.0 0.00 0.00 0.00 55 1015.5
20260509140222 70 287 6.0 11.0 0.00 0.00 0.00 56 1015.6
20260509135220 71 288 4.0 9.0 0.00 0.00 0.00 59 1015.6
20260509134220 70 288 4.0 9.0 0.00 0.00 0.00 58 1015.6
20260509132219 71 288 5.0 9.0 0.00 0.00 0.00 58 1015.8
20260509130218 68 288 3.0 9.0 0.00 0.00 0.00 64 1015.9
20260509125218 68 10 5.0 10.0 0.00 0.00 0.00 65 1016.1
20260509124217 69 318 5.0 11.0 0.00 0.00 0.00 64 1016.2
20260509123217 70 28 5.0 12.0 0.00 0.00 0.00 60 1016.2
20260509122216 70 359 2.0 8.0 0.00 0.00 0.00 63 1016.5
20260509121216 67 288 3.0 9.0 0.00 0.00 0.00 63 1016.6
20260509115216 65 288 4.0 10.0 0.00 0.00 0.00 77 1016.8
20260509114215 65 288 4.0 9.0 0.00 0.00 0.00 76 1016.8
20260509113215 65 11 4.0 9.0 0.00 0.00 0.00 75 1016.9
20260509111214 64 288 5.0 10.0 0.00 0.00 0.00 79 1017.0
20260509110214 64 288 5.0 10.0 0.00 0.00 0.00 81 1016.8
20260509104213 65 21 3.0 9.0 0.00 0.00 0.00 75 1016.9
20260509103213 65 288 3.0 10.0 0.00 0.00 0.00 76 1017.0
20260509102212 66 339 3.0 8.0 0.00 0.00 0.00 73 1017.0
20260509101212 67 346 6.0 10.0 0.00 0.00 0.00 71 1017.0
20260509100211 71 8 1.0 6.0 0.00 0.00 0.00 61 1017.1
20260509095211 71 356 2.0 4.0 0.00 0.00 0.00 58 1017.1
20260509094211 70 352 2.0 6.0 0.00 0.00 0.00 61 1017.1
20260509092210 71 183 1.0 7.0 0.00 0.00 0.00 60 1017.2
20260509091210 69 356 1.0 5.0 0.00 0.00 0.00 63 1017.3
20260509090209 67 200 1.0 4.0 0.00 0.00 0.00 70 1017.5
20260509084209 66 195 2.0 5.0 0.00 0.00 0.00 70 1017.5
20260509083208 67 208 0.0 3.0 0.00 0.00 0.00 71 1017.4
20260509080207 67 293 0.0 2.0 0.00 0.00 0.00 71 1017.6
20260509074206 67 222 1.0 5.0 0.00 0.00 0.00 70 1017.9
20260509073206 66 350 1.0 3.0 0.00 0.00 0.00 72 1018.0
20260509072206 64 217 2.0 6.0 0.00 0.00 0.00 76 1018.0
20260509071205 69 208 1.0 4.0 0.00 0.00 0.00 67 1017.9
20260509070205 67 0 0.0 0.0 0.00 0.00 0.00 71 1017.9
20260509065205 65 208 0.0 0.0 0.00 0.00 0.00 75 1017.7
20260509064204 63 205 0.0 1.0 0.00 0.00 0.00 78 1017.6
20260509063204 63 205 1.0 4.0 0.00 0.00 0.00 75 1017.5
20260509061203 62 0 0.0 0.0 0.00 0.00 0.00 77 1017.5
20260509060203 62 0 0.0 0.0 0.00 0.00 0.00 80 1017.4
20260509055202 59 0 0.0 0.0 0.00 0.00 0.00 84 1017.4
20260509054202 57 0 0.0 0.0 0.00 0.00 0.00 88 1017.5
20260509052201 54 38 0.0 1.0 0.00 0.00 0.00 95 1017.2
20260509051201 52 44 1.0 3.0 0.00 0.00 0.00 97 1017.1
20260509050200 49 37 0.0 1.0 0.00 0.00 0.00 99 1017.1
20260509045200 48 42 0.0 2.0 0.00 0.00 0.00 99 1017.0
20260509044200 48 30 2.0 3.0 0.00 0.00 0.00 99 1016.9
20260509043200 47 39 0.0 1.0 0.00 0.00 0.00 99 1016.9
20260509042159 47 0 0.0 0.0 0.00 0.00 0.00 99 1016.8
20260509041159 47 0 0.0 0.0 0.00 0.00 0.00 99 1016.7
20260509040158 48 32 2.0 4.0 0.00 0.00 0.00 99 1016.6
20260509035158 47 0 0.0 0.0 0.00 0.00 0.00 99 1016.6
20260509034158 47 0 0.0 0.0 0.00 0.00 0.00 99 1016.4
20260509033157 47 0 0.0 0.0 0.00 0.00 0.00 99 1016.4
20260509032157 46 38 4.0 5.0 0.00 0.00 0.00 99 1016.3
20260509031157 46 42 1.0 2.0 0.00 0.00 0.00 99 1016.3
20260509024155 46 49 2.0 4.0 0.00 0.00 0.00 99 1016.3
20260509023155 46 52 0.0 3.0 0.00 0.00 0.00 99 1016.3
20260509022155 46 0 0.0 0.0 0.00 0.00 0.00 99 1016.2
20260509021155 46 66 0.0 2.0 0.00 0.00 0.00 99 1016.2
20260509020154 47 0 0.0 0.0 0.00 0.00 0.00 99 1016.3
20260509015153 47 31 1.0 3.0 0.00 0.00 0.00 99 1016.3
20260509013153 47 153 0.0 2.0 0.00 0.00 0.00 98 1016.3
20260509012153 47 0 0.0 0.0 0.00 0.00 0.00 98 1016.3
20260509011152 47 8 1.0 1.0 0.00 0.00 0.00 98 1016.3
20260509005151 48 0 0.0 0.0 0.00 0.00 0.00 98 1016.3
20260509004151 48 0 0.0 0.0 0.00 0.00 0.00 98 1016.4
20260509002150 49 0 0.0 0.0 0.00 0.00 0.00 97 1016.5
20260509000149 50 0 0.0 0.0 0.00 0.00 0.00 96 1016.5
20260508235148 51 0 0.0 0.0 0.00 0.00 0.00 95 1016.4
20260508234148 50 0 0.0 0.0 0.00 0.00 0.00 96 1016.4
20260508233148 51 0 0.0 0.0 0.00 0.00 0.00 94 1016.4
20260508230147 52 0 0.0 0.0 0.00 0.00 0.00 93 1016.4
20260508224146 51 222 0.0 0.0 0.00 0.00 0.00 95 1016.4
20260508223145 51 0 0.0 0.0 0.00 0.00 0.00 95 1016.4
20260508222145 52 0 0.0 0.0 0.00 0.00 0.00 94 1016.5
20260508221145 53 0 0.0 0.0 0.00 0.00 0.00 93 1016.4
20260508215144 57 224 0.0 1.0 0.00 0.00 0.00 86 1016.4
20260508214144 58 89 1.0 6.0 0.00 0.00 0.00 78 1016.4
20260508213143 56 20 2.0 6.0 0.00 0.00 0.00 82 1016.4
20260508211142 55 69 0.0 2.0 0.00 0.00 0.00 90 1016.4
20260508210142 55 0 0.0 0.0 0.00 0.00 0.00 88 1016.4
20260508205142 56 0 0.0 0.0 0.00 0.00 0.00 86 1016.3
20260508204142 58 353 0.0 0.0 0.00 0.00 0.00 82 1016.3
20260508203141 59 14 0.0 3.0 0.00 0.00 0.00 79 1016.3
20260508202141 59 35 2.0 6.0 0.00 0.00 0.00 75 1016.3
20260508201141 59 31 2.0 5.0 0.00 0.00 0.00 75 1016.2
20260508195140 60 27 5.0 8.0 0.00 0.00 0.00 74 1015.9
20260508194139 60 37 5.0 7.0 0.00 0.00 0.00 75 1015.8
20260508193139 60 10 5.0 9.0 0.00 0.00 0.00 75 1015.6
20260508192139 61 27 5.0 7.0 0.00 0.00 0.00 75 1015.7
20260508191138 61 11 5.0 7.0 0.00 0.00 0.00 74 1015.6
20260508190138 61 27 5.0 7.0 0.00 0.00 0.00 74 1015.5
20260508185138 61 25 4.0 6.0 0.00 0.00 0.00 74 1015.4
20260508184137 62 28 4.0 6.0 0.00 0.00 0.00 73 1015.4
20260508183137 62 25 3.0 6.0 0.00 0.00 0.00 73 1015.3
20260508182136 63 30 3.0 5.0 0.00 0.00 0.00 73 1015.1
20260508181136 63 13 3.0 5.0 0.00 0.00 0.00 72 1015.1
20260508180136 64 20 3.0 5.0 0.00 0.00 0.00 70 1014.9
20260508175135 64 32 3.0 6.0 0.00 0.00 0.00 70 1014.9
20260508174135 65 10 3.0 6.0 0.00 0.00 0.00 67 1014.9
20260508173135 65 13 3.0 4.0 0.00 0.00 0.00 69 1014.7
20260508172134 66 17 3.0 8.0 0.00 0.00 0.00 68 1014.7
20260508171134 66 350 3.0 7.0 0.00 0.00 0.00 68 1014.7
20260508170133 66 65 5.0 9.0 0.00 0.00 0.00 66 1014.7
20260508165133 67 30 4.0 8.0 0.00 0.00 0.00 65 1014.7
20260508164133 66 288 4.0 9.0 0.00 0.00 0.00 65 1014.7
20260508162132 67 11 4.0 9.0 0.00 0.00 0.00 63 1014.6
20260508161132 67 288 5.0 9.0 0.00 0.00 0.00 63 1014.6
20260508160131 67 288 5.0 10.0 0.00 0.00 0.00 63 1014.6
20260508155131 67 288 4.0 8.0 0.00 0.00 0.00 63 1014.6
20260508154130 68 288 3.0 9.0 0.00 0.00 0.00 65 1014.7
20260508153130 68 342 5.0 9.0 0.00 0.00 0.00 63 1014.7
20260508152130 68 288 3.0 9.0 0.00 0.00 0.00 60 1014.8
20260508151129 68 288 3.0 10.0 0.00 0.00 0.00 60 1014.8
20260508150129 68 354 4.0 10.0 0.00 0.00 0.00 63 1014.8
20260508145129 70 288 2.0 7.0 0.00 0.00 0.00 60 1014.8
20260508144128 69 41 3.0 9.0 0.00 0.00 0.00 61 1014.8